Voltar ao catálogo

OPS 0856 DEB

LostPO
NORAD 23829·DEBRIS·🇺🇸 United States

Lançado Aug 19, 1966 de Vandenberg Space Force Base

Loading…

Próximas Passagens (próximas 24 horas)

TLE

ObsoletoSource: Space-Track

Época: May 12, 2022, 04:51 UTC

1 23829U 66077F   22132.20221353  .00000008  00000-0  00000+0 0  9995
2 23829  90.1030 212.4341 1637911  83.5498 288.8390  8.65541044912648

Acompanhe OPS 0856 DEB em tempo real com AllMySat

Download on the App Store